TimeMDT,TemperatureF,Dew PointF,Humidity,Sea Level PressureIn,VisibilityMPH,Wind Direction,Wind SpeedMPH,Gust SpeedMPH,PrecipitationIn,Events,Conditions,WindDirDegrees,DateUTC
12:15 AM,59.0,59.0,100,30.11,10.0,South,6.9,-,N/A,,Clear,180,2012-09-30 06:15:00
12:35 AM,59.0,57.2,94,30.11,10.0,South,6.9,-,N/A,,Clear,190,2012-09-30 06:35:00
12:55 AM,59.0,57.2,94,30.11,10.0,SSW,6.9,-,N/A,,Clear,210,2012-09-30 06:55:00
1:15 AM,59.0,57.2,94,30.11,10.0,SSE,6.9,-,N/A,,Clear,160,2012-09-30 07:15:00
1:35 AM,59.0,57.2,94,30.11,10.0,South,6.9,-,N/A,,Clear,170,2012-09-30 07:35:00
1:55 AM,59.0,57.2,94,30.10,10.0,South,5.8,-,N/A,,Clear,170,2012-09-30 07:55:00
2:15 AM,59.0,57.2,94,30.10,10.0,South,5.8,-,N/A,,Clear,170,2012-09-30 08:15:00
2:35 AM,57.2,57.2,100,30.10,10.0,SSE,5.8,-,N/A,,Clear,150,2012-09-30 08:35:00
2:55 AM,57.2,57.2,100,30.09,10.0,SSE,4.6,-,N/A,,Clear,160,2012-09-30 08:55:00
3:15 AM,57.2,57.2,100,30.09,10.0,SSE,4.6,-,N/A,,Clear,160,2012-09-30 09:15:00
3:35 AM,57.2,57.2,100,30.08,10.0,South,5.8,-,N/A,,Clear,170,2012-09-30 09:35:00
3:55 AM,57.2,57.2,100,30.08,10.0,SSW,5.8,-,N/A,,Clear,210,2012-09-30 09:55:00
4:15 AM,57.2,57.2,100,30.07,10.0,SSW,6.9,-,N/A,,Clear,200,2012-09-30 10:15:00
4:35 AM,57.2,57.2,100,30.07,9.0,South,4.6,-,N/A,,Clear,180,2012-09-30 10:35:00
4:55 AM,57.2,57.2,100,30.06,9.0,South,4.6,-,N/A,,Clear,170,2012-09-30 10:55:00
5:15 AM,57.2,57.2,100,30.06,7.0,South,4.6,-,N/A,,Clear,190,2012-09-30 11:15:00
5:55 AM,55.4,55.4,100,30.06,9.0,WSW,4.6,-,N/A,,Clear,240,2012-09-30 11:55:00
6:15 AM,55.4,55.4,100,30.07,10.0,Calm,Calm,-,N/A,,Clear,0,2012-09-30 12:15:00
6:35 AM,55.4,55.4,100,30.07,10.0,WSW,3.5,-,N/A,,Clear,250,2012-09-30 12:35:00
6:55 AM,55.4,55.4,100,30.07,10.0,Calm,Calm,-,N/A,,Clear,0,2012-09-30 12:55:00
7:15 AM,55.4,55.4,100,30.08,10.0,Calm,Calm,-,N/A,,Clear,0,2012-09-30 13:15:00
7:35 AM,57.2,57.2,100,30.09,10.0,Calm,Calm,-,N/A,,Clear,0,2012-09-30 13:35:00
7:55 AM,57.2,57.2,100,30.09,10.0,Calm,Calm,-,N/A,,Clear,0,2012-09-30 13:55:00
8:15 AM,59.0,55.4,88,30.10,10.0,Calm,Calm,-,N/A,,Clear,0,2012-09-30 14:15:00
8:55 AM,62.6,53.6,72,30.10,10.0,Calm,Calm,-,N/A,,Clear,0,2012-09-30 14:55:00
9:15 AM,62.6,55.4,77,30.10,10.0,WNW,3.5,-,N/A,,Clear,290,2012-09-30 15:15:00
9:35 AM,64.4,55.4,73,30.10,10.0,Calm,Calm,-,N/A,,Clear,0,2012-09-30 15:35:00
9:55 AM,64.4,55.4,73,30.10,10.0,NNW,3.5,-,N/A,,Clear,340,2012-09-30 15:55:00
10:15 AM,66.2,57.2,73,30.10,10.0,NNW,4.6,-,N/A,,Clear,340,2012-09-30 16:15:00
10:35 AM,66.2,57.2,73,30.10,10.0,NNE,5.8,-,N/A,,Clear,20,2012-09-30 16:35:00
10:55 AM,68.0,59.0,73,30.09,10.0,North,3.5,-,N/A,,Clear,10,2012-09-30 16:55:00
11:15 AM,68.0,57.2,68,30.09,10.0,NNW,4.6,-,N/A,,Clear,330,2012-09-30 17:15:00
11:35 AM,69.8,57.2,64,30.08,10.0,Calm,Calm,-,N/A,,Clear,0,2012-09-30 17:35:00
11:55 AM,71.6,57.2,60,30.08,10.0,NNW,4.6,-,N/A,,Clear,340,2012-09-30 17:55:00
12:15 PM,71.6,57.2,60,30.07,10.0,North,3.5,-,N/A,,Clear,360,2012-09-30 18:15:00
12:35 PM,73.4,55.4,53,30.06,10.0,North,4.6,-,N/A,,Clear,10,2012-09-30 18:35:00
12:55 PM,73.4,55.4,53,30.05,10.0,Calm,Calm,-,N/A,,Clear,0,2012-09-30 18:55:00
1:15 PM,75.2,55.4,50,30.04,10.0,NNE,4.6,-,N/A,,Clear,30,2012-09-30 19:15:00
1:35 PM,75.2,53.6,47,30.03,10.0,ESE,3.5,-,N/A,,Clear,120,2012-09-30 19:35:00
1:55 PM,75.2,53.6,47,30.02,10.0,East,4.6,-,N/A,,Clear,90,2012-09-30 19:55:00
2:15 PM,75.2,53.6,47,30.01,10.0,ENE,3.5,-,N/A,,Clear,60,2012-09-30 20:15:00
2:35 PM,75.2,53.6,47,30.01,10.0,Calm,Calm,-,N/A,,Clear,0,2012-09-30 20:35:00
2:55 PM,77.0,55.4,47,30.01,10.0,Calm,Calm,-,N/A,,Clear,0,2012-09-30 20:55:00
3:15 PM,75.2,55.4,50,30.00,10.0,Calm,Calm,-,N/A,,Clear,0,2012-09-30 21:15:00
3:35 PM,75.2,55.4,50,30.00,10.0,Calm,Calm,-,N/A,,Clear,0,2012-09-30 21:35:00
3:55 PM,77.0,55.4,47,29.99,10.0,Calm,Calm,-,N/A,,Clear,0,2012-09-30 21:55:00
4:15 PM,77.0,53.6,44,29.99,10.0,Calm,Calm,-,N/A,,Clear,0,2012-09-30 22:15:00
4:35 PM,77.0,55.4,47,29.99,10.0,West,6.9,-,N/A,,Clear,270,2012-09-30 22:35:00
4:55 PM,75.2,57.2,53,29.99,10.0,WSW,4.6,-,N/A,,Clear,250,2012-09-30 22:55:00
5:15 PM,75.2,55.4,50,29.99,10.0,Calm,Calm,-,N/A,,Clear,0,2012-09-30 23:15:00
5:35 PM,75.2,55.4,50,29.99,10.0,NW,12.7,-,N/A,Rain,Light Rain,310,2012-09-30 23:35:00
6:15 PM,73.4,53.6,50,29.98,10.0,West,11.5,18.4,N/A,,Clear,270,2012-10-01 00:15:00
6:35 PM,71.6,55.4,57,29.98,10.0,West,5.8,-,N/A,,Clear,260,2012-10-01 00:35:00
6:55 PM,69.8,53.6,56,29.99,10.0,West,6.9,-,N/A,,Clear,270,2012-10-01 00:55:00
7:15 PM,68.0,55.4,64,29.99,10.0,West,4.6,-,N/A,,Clear,270,2012-10-01 01:15:00
7:35 PM,66.2,57.2,73,30.00,10.0,WNW,8.1,-,N/A,,Clear,290,2012-10-01 01:35:00
8:15 PM,66.2,57.2,73,30.07,10.0,North,16.1,24.2,N/A,,Scattered Clouds,10,2012-10-01 02:15:00
8:35 PM,64.4,51.8,64,30.10,10.0,NE,31.1,43.7,N/A,,Mostly Cloudy,40,2012-10-01 02:35:00
8:55 PM,60.8,51.8,72,30.11,10.0,NE,21.9,33.4,N/A,Rain,Light Rain,50,2012-10-01 02:55:00
9:15 PM,60.8,53.6,77,30.10,10.0,ENE,10.4,21.9,N/A,Rain,Light Rain,60,2012-10-01 03:15:00
9:35 PM,60.8,53.6,77,30.07,10.0,ENE,13.8,19.6,N/A,,Partly Cloudy,70,2012-10-01 03:35:00
10:15 PM,62.6,51.8,68,30.05,10.0,ESE,5.8,-,N/A,,Mostly Cloudy,110,2012-10-01 04:15:00
10:35 PM,60.8,53.6,77,30.08,10.0,NW,13.8,-,N/A,,Clear,310,2012-10-01 04:35:00
11:15 PM,60.8,53.6,77,30.07,10.0,West,12.7,-,N/A,,Clear,260,2012-10-01 05:15:00
11:35 PM,59.0,51.8,77,30.08,10.0,West,11.5,-,N/A,,Clear,260,2012-10-01 05:35:00